Weather History for Lake Charles Regional, LA

Change the Weather History Date:

Wednesday, March 14, 2012

  Actual Average Record
Temperature  
Mean Temperature 76 °F 61 °F  
Max Temperature 82 °F 71 °F 83 °F (1928)
Min Temperature 69 °F 51 °F 27 °F (1993)
Degree Days  
Heating Degree Days 0 6  
Month to date heating degree days 27 94  
Since 1 July heating degree days 942 1376  
Cooling Degree Days 11 2  
Month to date cooling degree days 76 15  
Year to date cooling degree days 161 38  
Growing Degree Days 26 (Base 50)    
Moisture  
Dew Point 68 °F    
Average Humidity 76    
Maximum Humidity 90    
Minimum Humidity 62    
Precipitation  
Precipitation 0.00 in 0.12 in 3.16 in (2004)
Month to date precipitation 4.05 1.67  
Year to date precipitation 20.86 10.36  
Snow  
Snow 0.00 in 0.00 in 0.00 in ()
Month to date snowfall 0.0 0.0  
Since 1 July snowfall 0.0 0.1  
Snow Depth 0.00 in    
Sea Level Pressure  
Sea Level Pressure 30.18 in    
Wind  
Wind Speed 7 mph (SSE)    
Max Wind Speed 14 mph    
Max Gust Speed 20 mph    
Visibility 10 miles    
Events      
T = Trace of Precipitation, MM = Missing Value Source: NWS Daily Summary

Daily Weather History Graph

Daily Weather History Graph

Search for Another Location

Airport:

Trip Planner

Search our weather history database for the weather conditions in past years. The results will help you decide how hot, cold, wet, or windy it might be!

Date:

Astronomy

Mar. 14, 2012 Rise Set
Actual Time 7:23 AM CDT 7:20 PM CDT
Civil Twilight 6:59 AM CDT 7:44 PM CDT
Nautical Twilight 6:31 AM CDT 8:12 PM CDT
Astronomical Twilight 6:03 AM CDT 8:40 PM CDT
Moon 1:28 AM CDT (3/14) 12:03 PM CDT (3/14)
Length of Visible Light 12h 45m
Length of Day
11h 57m
Waning Gibbous, 54% of the Moon is Illuminated
Mar 14
Waning Gibbous
Mar 14
Last Quarter
Mar 22
New
Mar 30
First Quarter
Apr 6
Full

Hourly Weather History & Observations

Time (CDT) Temp. Heat Index Dew Point Humidity Pressure Visibility Wind Dir Wind Speed Gust Speed Precip Events Conditions
12:24 AM 71.6 °F - 68.0 °F 88% 30.16 in 10.0 mi South 9.2 mph - N/A   Overcast
12:35 AM 71.6 °F - 66.2 °F 83% 30.16 in 10.0 mi South 5.8 mph - N/A   Overcast
12:53 AM 72.0 °F - 66.9 °F 84% 30.18 in 10.0 mi South 3.5 mph - N/A   Overcast
1:51 AM 71.6 °F - 68.0 °F 88% 30.16 in 10.0 mi SSE 5.8 mph - N/A   Overcast
1:53 AM 72.0 °F - 68.0 °F 87% 30.18 in 10.0 mi SSE 6.9 mph - N/A   Overcast
2:53 AM 72.0 °F - 68.0 °F 87% 30.17 in 10.0 mi South 4.6 mph - N/A   Overcast
3:07 AM 71.6 °F - 68.0 °F 88% 30.14 in 10.0 mi South 4.6 mph - N/A   Overcast
3:21 AM 71.6 °F - 68.0 °F 88% 30.13 in 10.0 mi SSE 4.6 mph - N/A   Overcast
3:53 AM 72.0 °F - 68.0 °F 87% 30.16 in 10.0 mi South 3.5 mph - N/A   Overcast
4:53 AM 72.0 °F - 68.0 °F 87% 30.15 in 10.0 mi South 3.5 mph - N/A   Overcast
5:06 AM 71.6 °F - 68.0 °F 88% 30.12 in 10.0 mi Calm Calm - N/A   Overcast
5:13 AM 71.6 °F - 68.0 °F 88% 30.13 in 10.0 mi Calm Calm - N/A   Mostly Cloudy
5:53 AM 71.1 °F - 68.0 °F 90% 30.16 in 8.0 mi SSE 3.5 mph - N/A   Overcast
6:53 AM 69.1 °F - 66.9 °F 93% 30.17 in 6.0 mi SE 3.5 mph - N/A   Overcast
7:53 AM 71.1 °F - 68.0 °F 90% 30.19 in 6.0 mi SE 4.6 mph - N/A   Overcast
8:31 AM 71.6 °F - 68.0 °F 88% 30.18 in 8.0 mi SE 5.8 mph - N/A   Overcast
8:53 AM 73.0 °F - 70.0 °F 90% 30.21 in 10.0 mi SSE 6.9 mph - N/A   Mostly Cloudy
9:36 AM 75.2 °F - 69.8 °F 83% 30.20 in 10.0 mi SSE 10.4 mph - N/A   Overcast
9:53 AM 75.0 °F - 68.0 °F 79% 30.23 in 10.0 mi SSE 8.1 mph - N/A   Mostly Cloudy
10:01 AM 75.2 °F - 69.8 °F 83% 30.21 in 10.0 mi South 5.8 mph - N/A   Mostly Cloudy
10:53 AM 77.0 °F - 68.0 °F 74% 30.24 in 10.0 mi South 6.9 mph - N/A   Scattered Clouds
11:53 AM 79.0 °F - 66.9 °F 66% 30.25 in 10.0 mi SSE 8.1 mph - 0.00 in   Scattered Clouds
12:53 PM 79.0 °F - 66.9 °F 66% 30.24 in 10.0 mi SSE 8.1 mph - N/A   Scattered Clouds
1:28 PM 80.6 °F 83.2 °F 68.0 °F 65% 30.20 in 10.0 mi South 9.2 mph - N/A   Mostly Cloudy
1:53 PM 81.0 °F 83.3 °F 66.9 °F 62% 30.22 in 10.0 mi South 10.4 mph - N/A   Mostly Cloudy
2:03 PM 82.4 °F 84.6 °F 66.2 °F 58% 30.19 in 10.0 mi South 10.4 mph - N/A   Scattered Clouds
2:53 PM 78.1 °F - 68.0 °F 71% 30.19 in 10.0 mi South 8.1 mph - N/A   Scattered Clouds
3:53 PM 81.0 °F 83.0 °F 66.0 °F 60% 30.19 in 10.0 mi South 11.5 mph - N/A   Partly Cloudy
4:53 PM 79.0 °F - 66.9 °F 66% 30.17 in 10.0 mi South 8.1 mph - N/A   Clear
5:53 PM 77.0 °F - 66.9 °F 71% 30.17 in 10.0 mi South 9.2 mph - N/A   Partly Cloudy
6:53 PM 75.9 °F - 68.0 °F 76% 30.18 in 10.0 mi South 9.2 mph - N/A   Clear
7:53 PM 73.9 °F - 69.1 °F 85% 30.18 in 10.0 mi South 8.1 mph - N/A   Clear
8:53 PM 73.0 °F - 68.0 °F 84% 30.19 in 10.0 mi South 5.8 mph - N/A   Clear
9:53 PM 73.0 °F - 69.1 °F 87% 30.20 in 10.0 mi SSE 6.9 mph - N/A   Clear
10:16 PM 71.6 °F - 69.8 °F 94% 30.19 in 10.0 mi South 3.5 mph - N/A   Scattered Clouds
10:53 PM 71.1 °F - 68.0 °F 90% 30.21 in 10.0 mi SSE 4.6 mph - N/A   Clear
11:53 PM 70.0 °F - 66.9 °F 90% 30.20 in 10.0 mi SSE 4.6 mph - N/A   Clear